TimeMST,TemperatureF,Dew PointF,Humidity,Sea Level PressureIn,VisibilityMPH,Wind Direction,Wind SpeedMPH,Gust SpeedMPH,PrecipitationIn,Events,Conditions,WindDirDegrees,DateUTC
12:51 AM,27.0,21.0,78,29.85,10.0,NNW,11.5,-,N/A,,Overcast,330,2013-02-21 07:51:00
1:51 AM,27.0,23.0,85,29.87,8.0,NNW,6.9,-,0.00,,Overcast,340,2013-02-21 08:51:00
2:51 AM,24.1,21.0,88,29.88,10.0,NW,6.9,-,N/A,,Overcast,310,2013-02-21 09:51:00
3:51 AM,25.0,19.9,81,29.89,10.0,North,3.5,-,N/A,,Overcast,10,2013-02-21 10:51:00
5:51 AM,24.1,19.9,84,29.94,10.0,Calm,Calm,-,N/A,,Overcast,0,2013-02-21 12:51:00
6:20 AM,24.8,19.4,80,29.87,4.0,Calm,Calm,-,0.00,Snow,Light Snow,0,2013-02-21 13:20:00
6:41 AM,24.8,19.4,80,29.88,4.0,Calm,Calm,-,0.00,Snow,Light Snow,0,2013-02-21 13:41:00
6:51 AM,24.1,21.0,88,29.95,6.0,West,3.5,-,0.00,Snow,Light Snow,260,2013-02-21 13:51:00
7:27 AM,23.0,19.4,86,29.90,2.0,Calm,Calm,-,0.00,Snow,Light Snow,0,2013-02-21 14:27:00
7:51 AM,21.9,19.9,92,29.99,2.5,WSW,3.5,-,0.00,Snow,Light Snow,250,2013-02-21 14:51:00
7:57 AM,21.2,19.4,93,29.91,4.0,WSW,3.5,-,0.00,Snow,Light Snow,250,2013-02-21 14:57:00
8:41 AM,23.0,21.2,93,29.93,2.5,Calm,Calm,-,0.00,Snow,Light Snow,0,2013-02-21 15:41:00
8:51 AM,24.1,21.9,91,30.01,2.5,Calm,Calm,-,0.00,Snow,Light Snow,0,2013-02-21 15:51:00
9:26 AM,24.8,21.2,86,29.94,3.0,Calm,Calm,-,0.00,Snow,Light Snow,0,2013-02-21 16:26:00
9:51 AM,25.0,21.9,88,30.01,6.0,Calm,Calm,-,0.00,,Overcast,0,2013-02-21 16:51:00
9:59 AM,26.6,23.0,86,29.94,6.0,Calm,Calm,-,N/A,,Overcast,0,2013-02-21 16:59:00
10:48 AM,26.6,23.0,86,29.95,10.0,Calm,Calm,-,N/A,,Overcast,0,2013-02-21 17:48:00
10:51 AM,26.1,23.0,88,30.03,10.0,Calm,Calm,-,N/A,,Overcast,0,2013-02-21 17:51:00
12:51 PM,28.0,21.9,78,30.03,10.0,NNW,4.6,-,N/A,,Overcast,330,2013-02-21 19:51:00
1:51 PM,28.9,21.9,75,30.02,10.0,NNW,4.6,-,N/A,,Overcast,330,2013-02-21 20:51:00
2:51 PM,30.0,21.0,69,30.03,10.0,Calm,Calm,-,0.00,,Overcast,0,2013-02-21 21:51:00
3:51 PM,28.0,21.0,75,30.03,10.0,West,3.5,-,N/A,,Overcast,270,2013-02-21 22:51:00
4:51 PM,28.0,21.9,78,30.04,10.0,Calm,Calm,-,N/A,,Overcast,0,2013-02-21 23:51:00
5:51 PM,28.0,21.9,78,30.05,10.0,SW,3.5,-,N/A,,Overcast,230,2013-02-22 00:51:00
6:51 PM,27.0,23.0,85,30.07,7.0,West,3.5,-,0.00,Snow,Light Snow,280,2013-02-22 01:51:00
7:51 PM,27.0,23.0,85,30.09,5.0,Calm,Calm,-,0.00,Snow,Light Snow,0,2013-02-22 02:51:00
8:51 PM,26.1,23.0,88,30.09,10.0,ESE,3.5,-,0.00,,Overcast,120,2013-02-22 03:51:00
9:51 PM,25.0,21.9,88,30.10,10.0,South,3.5,-,N/A,,Clear,170,2013-02-22 04:51:00
10:25 PM,19.4,17.6,93,30.01,2.0,Calm,Calm,-,N/A,,Partly Cloudy,0,2013-02-22 05:25:00
10:38 PM,19.4,17.6,93,30.01,1.5,Calm,Calm,-,N/A,,Mostly Cloudy,0,2013-02-22 05:38:00
10:46 PM,19.4,17.6,93,30.01,3.0,Calm,Calm,-,N/A,,Overcast,0,2013-02-22 05:46:00
10:51 PM,19.9,18.0,92,30.12,6.0,Calm,Calm,-,N/A,,Overcast,0,2013-02-22 05:51:00
11:51 PM,19.9,16.0,85,30.10,10.0,WNW,4.6,-,N/A,,Overcast,290,2013-02-22 06:51:00